Find Starlink 32751

NORAD ID: 62753 Int'l Des: 2025-014 Owner: SPXS Country: US Constellation: starlink operational
LEOCIRCULAR

Live Position

Loading 3D Globe...

About Starlink 32751

Description loading...

Upcoming Passes

Passes for default location (London). Set your location on the main map for personalized predictions.

Altitude History

Loading altitude history...

Two-Line Element Set

1 62753U 25014U 26122.30601351 .00013389 00000-0 49505-3 0 9997
2 62753 42.9953 211.9052 0001331 181.9199 178.1648 15.27588111 71454
Epoch: May 2, 2026 • Age: 9 hours

Current Status

Altitude 487.8 km
Velocity 7.62 km/s
Sub-Earth Point -23.49°S, 45.07°W
Launch Date Jan 21, 2025
Age 1.2 years
Type internet

Technical Details

Classification Payload
Mass 730.00 kg
Dry Mass 700.00 kg
Total Mass 730.00 kg
Length 0.30 m
Diameter 4.10 m
Span 29.00 m
Shape Box + pan
Manufacturer SPXS
Bus Type Starlink V2M
Phase Status In Orbit
Owner/State SPXS/US

Most Searched